Find Starlink 37133

NORAD ID: 68265 Int'l Des: 2026-055 Owner: SPXS Country: US Constellation: starlink operational
LEOCIRCULAR

Current View

Loading 3D Globe...

About Starlink 37133

Starlink 37133 (NORAD 68265) is a starlink constellation satellite (v2 mini) launched Mar 19, 2026 by SPXS of US. It operates in LEO, CIRCULAR orbit with a mass of 575.00 kg.

About Starlink 37133

Description loading...

Upcoming Passes

Passes for default location (London). Set your location on the main map for personalized predictions.

Altitude History

Loading altitude history...

Two-Line Element Set

1 68265U 26055D 26168.44053709 .00017564 00000-0 53024-3 0 9990
2 68265 53.1566 215.9130 0001198 90.0413 270.0727 15.34369766 15205
Epoch: Jun 17, 2026 • Age: 31 hours

Current Status

Altitude 475.7 km
Velocity 7.63 km/s
Sub-Earth Point -38.15°S, 2.77°E
Launch Date Mar 19, 2026
Age 0.2 years
Type internet

Technical Details

Classification Payload
Mass 575.00 kg
Dry Mass 530.00 kg
Total Mass 575.00 kg
Length 0.30 m
Diameter 4.10 m
Span 29.00 m
Shape Box + pan
Manufacturer SPXS
Bus Type Starlink V2MO
Phase Status In Orbit
Owner/State SPXS/US

Most Searched